Tracking 27111 objects as of 29-Mar-2023
HD Live streaming from Space Station
objects crossing your sky now

OBJECT BC

Track OBJECT BC now!
10-day predictions


NORAD ID: 55059
Int'l Code: 2023-001BC
Perigee: 519.2 km
Apogee: 535.1 km
Inclination: 97.5 °
Period: 95.0 minutes
Semi major axis: 6898 km
RCS: Unknown
Launch date: January 3, 2023
Source: (TBD)
Launch site: AIR FORCE EASTERN TEST RANGE (AFETR)
Your satellite tracking list
Your tracking list is empty




NASA's NSSDC Master Catalog

Two Line Element Set (TLE):
1 55059U 23001BC  23087.74075977  .00015248  00000-0  81041-3 0  9993
2 55059  97.4870 148.5394 0011515 287.7258  72.2717 15.15324263 12884
Source of the keplerian elements: AFSPC